Location: McFarlands Corners
(41.4117°N, 81.3382°W)
Time: 23:48:14
(UTC+00:00)

Vanguard 3 - Pass Details

Date: 16 November 2024
Orbit: 507 x 3220 km, 33.4° (Epoch: 06 December)

Event Time Altitude Azimuth Distance (km) Brightness Sun altitude
Rises 22:51:07 0° 277° (W) 5,990 12.9 -9.0°
Reaches altitude 10° 22:56:25 10° 268° (W) 4,481 12.4 -10.0°
Maximum altitude 23:05:10 26° 218° (SW) 2,496 10.3 -11.5°
Drops below altitude 10° 23:10:55 10° 164° (SSE) 2,850 9.9 -12.6°
Sets 23:13:30 0° 150° (SSE) 3,501 10.3 -13.0°
